Year,Month,Day,Hour,Minute,Value (Times are PST for temperature in C)
2020,09,30,00,00,12.40
2020,09,30,00,01,12.40
2020,09,30,00,02,12.40
2020,09,30,00,03,12.40
2020,09,30,00,04,12.30
2020,09,30,00,05,12.30
2020,09,30,00,06,12.30
2020,09,30,00,07,12.30
2020,09,30,00,08,12.30
2020,09,30,00,09,12.30
2020,09,30,00,10,12.30
2020,09,30,00,11,12.30
2020,09,30,00,12,12.30
2020,09,30,00,13,12.30
2020,09,30,00,14,12.30
2020,09,30,00,15,12.30
2020,09,30,00,16,12.30
2020,09,30,00,17,12.30
2020,09,30,00,18,12.20
2020,09,30,00,19,12.20
2020,09,30,00,20,12.20
2020,09,30,00,21,12.20
2020,09,30,00,22,12.20
2020,09,30,00,23,12.10
2020,09,30,00,24,12.10
2020,09,30,00,25,12.10
2020,09,30,00,26,12.10
2020,09,30,00,27,12.10
2020,09,30,00,28,12.00
2020,09,30,00,29,12.00
2020,09,30,00,30,12.00
2020,09,30,00,31,11.90
2020,09,30,00,32,11.90
2020,09,30,00,33,11.90
2020,09,30,00,34,11.90
2020,09,30,00,35,11.90
2020,09,30,00,36,11.90
2020,09,30,00,37,11.90
2020,09,30,00,38,11.90
2020,09,30,00,39,11.90
2020,09,30,00,40,11.90
2020,09,30,00,41,11.90
2020,09,30,00,42,11.90
2020,09,30,00,43,11.90
2020,09,30,00,44,11.90
2020,09,30,00,45,11.90
2020,09,30,00,46,11.90
2020,09,30,00,47,11.80
2020,09,30,00,48,11.80
2020,09,30,00,49,11.80
2020,09,30,00,50,11.80
2020,09,30,00,51,11.80
2020,09,30,00,52,11.80
2020,09,30,00,53,11.80
2020,09,30,00,54,11.80
2020,09,30,00,55,11.80
2020,09,30,00,56,11.80
2020,09,30,00,57,11.80
2020,09,30,00,58,11.80
2020,09,30,00,59,11.70
2020,09,30,01,00,11.70
2020,09,30,01,01,11.70
2020,09,30,01,02,11.70
2020,09,30,01,03,11.70
2020,09,30,01,04,11.70
2020,09,30,01,05,11.70
2020,09,30,01,06,11.70
2020,09,30,01,07,11.70
2020,09,30,01,08,11.70
2020,09,30,01,09,11.70
2020,09,30,01,10,11.70
2020,09,30,01,11,11.70
2020,09,30,01,12,11.70
2020,09,30,01,13,11.70
2020,09,30,01,14,11.70
2020,09,30,01,15,11.70
2020,09,30,01,16,11.70
2020,09,30,01,17,11.70
2020,09,30,01,18,11.70
2020,09,30,01,19,11.70
2020,09,30,01,20,11.60
2020,09,30,01,21,11.60
2020,09,30,01,22,11.60
2020,09,30,01,23,11.60
2020,09,30,01,24,11.60
2020,09,30,01,25,11.60
2020,09,30,01,26,11.60
2020,09,30,01,27,11.60
2020,09,30,01,28,11.60
2020,09,30,01,29,11.60
2020,09,30,01,30,11.60
2020,09,30,01,31,11.50
2020,09,30,01,32,11.50
2020,09,30,01,33,11.50
2020,09,30,01,34,11.50
2020,09,30,01,35,11.50
2020,09,30,01,36,11.50
2020,09,30,01,37,11.50
2020,09,30,01,38,11.40
2020,09,30,01,39,11.40
2020,09,30,01,40,11.40
2020,09,30,01,41,11.40
2020,09,30,01,42,11.40
2020,09,30,01,43,11.40
2020,09,30,01,44,11.40
2020,09,30,01,45,11.40
2020,09,30,01,46,11.40
2020,09,30,01,47,11.30
2020,09,30,01,48,11.30
2020,09,30,01,49,11.30
2020,09,30,01,50,11.30
2020,09,30,01,51,11.40
2020,09,30,01,52,11.40
2020,09,30,01,53,11.40
2020,09,30,01,54,11.40
2020,09,30,01,55,11.40
2020,09,30,01,56,11.40
2020,09,30,01,57,11.40
2020,09,30,01,58,11.40
2020,09,30,01,59,11.30
2020,09,30,02,00,11.30
2020,09,30,02,01,11.40
2020,09,30,02,02,11.40
2020,09,30,02,03,11.40
2020,09,30,02,04,11.40
2020,09,30,02,05,11.40
2020,09,30,02,06,11.40
2020,09,30,02,07,11.40
2020,09,30,02,08,11.40
2020,09,30,02,09,11.40
2020,09,30,02,10,11.40
2020,09,30,02,11,11.40
2020,09,30,02,12,11.40
2020,09,30,02,13,11.30
2020,09,30,02,14,11.30
2020,09,30,02,15,11.30
2020,09,30,02,16,11.30
2020,09,30,02,17,11.30
2020,09,30,02,18,11.30
2020,09,30,02,19,11.30
2020,09,30,02,20,11.30
2020,09,30,02,21,11.30
2020,09,30,02,22,11.30
2020,09,30,02,23,11.30
2020,09,30,02,24,11.30
2020,09,30,02,25,11.30
2020,09,30,02,26,11.30
2020,09,30,02,27,11.30
2020,09,30,02,28,11.30
2020,09,30,02,29,11.30
2020,09,30,02,30,11.30
2020,09,30,02,31,11.30
2020,09,30,02,32,11.30
2020,09,30,02,33,11.30
2020,09,30,02,34,11.30
2020,09,30,02,35,11.30
2020,09,30,02,36,11.30
2020,09,30,02,37,11.30
2020,09,30,02,38,11.30
2020,09,30,02,39,11.30
2020,09,30,02,40,11.20
2020,09,30,02,41,11.20
2020,09,30,02,42,11.20
2020,09,30,02,43,11.20
2020,09,30,02,44,11.20
2020,09,30,02,45,11.20
2020,09,30,02,46,11.20
2020,09,30,02,47,11.20
2020,09,30,02,48,11.20
2020,09,30,02,49,11.10
2020,09,30,02,50,11.10
2020,09,30,02,51,11.10
2020,09,30,02,52,11.10
2020,09,30,02,53,11.10
2020,09,30,02,54,11.00
2020,09,30,02,55,11.00
2020,09,30,02,56,11.00
2020,09,30,02,57,11.00
2020,09,30,02,58,11.00
2020,09,30,02,59,11.00
2020,09,30,03,00,11.00
2020,09,30,03,01,11.00
2020,09,30,03,02,11.00
2020,09,30,03,03,11.00
2020,09,30,03,04,11.00
2020,09,30,03,05,11.00
2020,09,30,03,06,11.00
2020,09,30,03,07,10.90
2020,09,30,03,08,10.90
2020,09,30,03,09,10.90
2020,09,30,03,10,10.90
2020,09,30,03,11,10.90
2020,09,30,03,12,10.90
2020,09,30,03,13,10.90
2020,09,30,03,14,10.90
2020,09,30,03,15,10.90
2020,09,30,03,16,10.90
2020,09,30,03,17,10.90
2020,09,30,03,18,10.90
2020,09,30,03,19,10.90
2020,09,30,03,20,10.90
2020,09,30,03,21,10.90
2020,09,30,03,22,10.90
2020,09,30,03,23,10.90
2020,09,30,03,24,10.90
2020,09,30,03,25,10.90
2020,09,30,03,26,10.90
2020,09,30,03,27,10.90
2020,09,30,03,28,10.90
2020,09,30,03,29,10.90
2020,09,30,03,30,10.90
2020,09,30,03,31,10.90
2020,09,30,03,32,10.90
2020,09,30,03,33,10.90
2020,09,30,03,34,10.90
2020,09,30,03,35,10.90
2020,09,30,03,36,10.90
2020,09,30,03,37,10.90
2020,09,30,03,38,10.90
2020,09,30,03,39,10.90
2020,09,30,03,40,10.90
2020,09,30,03,41,10.90
2020,09,30,03,42,10.90
2020,09,30,03,43,10.90
2020,09,30,03,44,10.90
2020,09,30,03,45,10.90
2020,09,30,03,46,10.90
2020,09,30,03,47,10.90
2020,09,30,03,48,10.90
2020,09,30,03,49,10.90
2020,09,30,03,50,10.90
2020,09,30,03,51,10.80
2020,09,30,03,52,10.80
2020,09,30,03,53,10.80
2020,09,30,03,54,10.80
2020,09,30,03,55,10.80
2020,09,30,03,56,10.80
2020,09,30,03,57,10.80
2020,09,30,03,58,10.80
2020,09,30,03,59,10.80
2020,09,30,04,00,10.80
2020,09,30,04,01,10.80
2020,09,30,04,02,10.80
2020,09,30,04,03,10.80
2020,09,30,04,04,10.80
2020,09,30,04,05,10.80
2020,09,30,04,06,10.80
2020,09,30,04,07,10.80
2020,09,30,04,08,10.70
2020,09,30,04,09,10.70
2020,09,30,04,10,10.70
2020,09,30,04,11,10.70
2020,09,30,04,12,10.70
2020,09,30,04,13,10.70
2020,09,30,04,14,10.70
2020,09,30,04,15,10.70
2020,09,30,04,16,10.70
2020,09,30,04,17,10.70
2020,09,30,04,18,10.70
2020,09,30,04,19,10.70
2020,09,30,04,20,10.70
2020,09,30,04,21,10.70
2020,09,30,04,22,10.70
2020,09,30,04,23,10.70
2020,09,30,04,24,10.70
2020,09,30,04,25,10.70
2020,09,30,04,26,10.70
2020,09,30,04,27,10.70
2020,09,30,04,28,10.70
2020,09,30,04,29,10.70
2020,09,30,04,30,10.70
2020,09,30,04,31,10.70
2020,09,30,04,32,10.70
2020,09,30,04,33,10.70
2020,09,30,04,34,10.70
2020,09,30,04,35,10.80
2020,09,30,04,36,10.80
2020,09,30,04,37,10.80
2020,09,30,04,38,10.80
2020,09,30,04,39,10.80
2020,09,30,04,40,10.80
2020,09,30,04,41,10.80
2020,09,30,04,42,10.80
2020,09,30,04,43,10.80
2020,09,30,04,44,10.80
2020,09,30,04,45,10.80
2020,09,30,04,46,10.80
2020,09,30,04,47,10.80
2020,09,30,04,48,10.80
2020,09,30,04,49,10.80
2020,09,30,04,50,10.80
2020,09,30,04,51,10.80
2020,09,30,04,52,10.80
2020,09,30,04,53,10.80
2020,09,30,04,54,10.80
2020,09,30,04,55,10.80
2020,09,30,04,56,10.80
2020,09,30,04,57,10.80
2020,09,30,04,58,10.80
2020,09,30,04,59,10.80
2020,09,30,05,00,10.80
2020,09,30,05,01,10.80
2020,09,30,05,02,10.80
2020,09,30,05,03,10.80
2020,09,30,05,04,10.80
2020,09,30,05,05,10.80
2020,09,30,05,06,10.80
2020,09,30,05,07,10.80
2020,09,30,05,08,10.80
2020,09,30,05,09,10.80
2020,09,30,05,10,10.80
2020,09,30,05,11,10.80
2020,09,30,05,12,10.80
2020,09,30,05,13,10.80
2020,09,30,05,14,10.80
2020,09,30,05,15,10.80
2020,09,30,05,16,10.80
2020,09,30,05,17,10.80
2020,09,30,05,18,10.70
2020,09,30,05,19,10.70
2020,09,30,05,20,10.70
2020,09,30,05,21,10.70
2020,09,30,05,22,10.70
2020,09,30,05,23,10.70
2020,09,30,05,24,10.70
2020,09,30,05,25,10.70
2020,09,30,05,26,10.70
2020,09,30,05,27,10.70
2020,09,30,05,28,10.70
2020,09,30,05,29,10.70
2020,09,30,05,30,10.70
2020,09,30,05,31,10.60
2020,09,30,05,32,10.60
2020,09,30,05,33,10.60
2020,09,30,05,34,10.70
2020,09,30,05,35,10.70
2020,09,30,05,36,10.70
2020,09,30,05,37,10.70
2020,09,30,05,38,10.70
2020,09,30,05,39,10.70
2020,09,30,05,40,10.70
2020,09,30,05,41,10.70
2020,09,30,05,42,10.70
2020,09,30,05,43,10.70
2020,09,30,05,44,10.70
2020,09,30,05,45,10.70
2020,09,30,05,46,10.70
2020,09,30,05,47,10.70
2020,09,30,05,48,10.70
2020,09,30,05,49,10.70
2020,09,30,05,50,10.70
2020,09,30,05,51,10.70
2020,09,30,05,52,10.70
2020,09,30,05,53,10.70
2020,09,30,05,54,10.70
2020,09,30,05,55,10.70
2020,09,30,05,56,10.70
2020,09,30,05,57,10.70
2020,09,30,05,58,10.70
2020,09,30,05,59,10.70
2020,09,30,06,00,10.70
2020,09,30,06,01,10.70
2020,09,30,06,02,10.70
2020,09,30,06,03,10.70
2020,09,30,06,04,10.70
2020,09,30,06,05,10.70
2020,09,30,06,06,10.70
2020,09,30,06,07,10.70
2020,09,30,06,08,10.70
2020,09,30,06,09,10.70
2020,09,30,06,10,10.70
2020,09,30,06,11,10.70
2020,09,30,06,12,10.70
2020,09,30,06,13,10.70
2020,09,30,06,14,10.70
2020,09,30,06,15,10.80
2020,09,30,06,16,10.80
2020,09,30,06,17,10.80
2020,09,30,06,18,10.80
2020,09,30,06,19,10.80
2020,09,30,06,20,10.80
2020,09,30,06,21,10.80
2020,09,30,06,22,10.80
2020,09,30,06,23,10.80
2020,09,30,06,24,10.80
2020,09,30,06,25,10.80
2020,09,30,06,26,10.80
2020,09,30,06,27,10.80
2020,09,30,06,28,10.80
2020,09,30,06,29,10.80
2020,09,30,06,30,10.80
2020,09,30,06,31,10.70
2020,09,30,06,32,10.70
2020,09,30,06,33,10.70
2020,09,30,06,34,10.70
2020,09,30,06,35,10.80
2020,09,30,06,36,10.70
2020,09,30,06,37,10.80
2020,09,30,06,38,10.80
2020,09,30,06,39,10.80
2020,09,30,06,40,10.80
2020,09,30,06,41,10.80
2020,09,30,06,42,10.80
2020,09,30,06,43,10.80
2020,09,30,06,44,10.90
2020,09,30,06,45,10.90
2020,09,30,06,46,10.90
2020,09,30,06,47,10.90
2020,09,30,06,48,10.90
2020,09,30,06,49,10.90
2020,09,30,06,50,10.90
2020,09,30,06,51,10.90
2020,09,30,06,52,10.90
2020,09,30,06,53,10.90
2020,09,30,06,54,10.90
2020,09,30,06,55,10.90
2020,09,30,06,56,10.90
2020,09,30,06,57,10.90
2020,09,30,06,58,10.90
2020,09,30,06,59,10.90
2020,09,30,07,00,10.90
2020,09,30,07,01,10.90
2020,09,30,07,02,10.90
2020,09,30,07,03,10.90
2020,09,30,07,04,10.90
2020,09,30,07,05,10.90
2020,09,30,07,06,10.90
2020,09,30,07,07,10.90
2020,09,30,07,08,10.90
2020,09,30,07,09,10.90
2020,09,30,07,10,10.80
2020,09,30,07,11,10.80
2020,09,30,07,12,10.80
2020,09,30,07,13,10.80
2020,09,30,07,14,10.80
2020,09,30,07,15,10.80
2020,09,30,07,16,10.80
2020,09,30,07,17,10.80
2020,09,30,07,18,10.90
2020,09,30,07,19,10.90
2020,09,30,07,20,10.90
2020,09,30,07,21,10.90
2020,09,30,07,22,10.90
2020,09,30,07,23,10.90
2020,09,30,07,24,10.90
2020,09,30,07,25,10.90
2020,09,30,07,26,10.90
2020,09,30,07,27,10.90
2020,09,30,07,28,10.80
2020,09,30,07,29,10.80
2020,09,30,07,30,10.80
2020,09,30,07,31,10.80
2020,09,30,07,32,10.80
2020,09,30,07,33,10.80
2020,09,30,07,34,10.80
2020,09,30,07,35,10.70
2020,09,30,07,36,10.70
2020,09,30,07,37,10.70
2020,09,30,07,38,10.70
2020,09,30,07,39,10.70
2020,09,30,07,40,10.70
2020,09,30,07,41,10.70
2020,09,30,07,42,10.70
2020,09,30,07,43,10.70
2020,09,30,07,44,10.70
2020,09,30,07,45,10.70
2020,09,30,07,46,10.70
2020,09,30,07,47,10.70
2020,09,30,07,48,10.70
2020,09,30,07,49,10.70
2020,09,30,07,50,10.80
2020,09,30,07,51,10.80
2020,09,30,07,52,10.80
2020,09,30,07,53,10.80
2020,09,30,07,54,10.80
2020,09,30,07,55,10.80
2020,09,30,07,56,10.80
2020,09,30,07,57,10.80
2020,09,30,07,58,10.90
2020,09,30,07,59,10.90
2020,09,30,08,00,10.90
2020,09,30,08,01,10.90
2020,09,30,08,02,10.90
2020,09,30,08,03,10.90
2020,09,30,08,04,11.00
2020,09,30,08,05,11.00
2020,09,30,08,06,11.00
2020,09,30,08,07,11.00
2020,09,30,08,08,11.00
2020,09,30,08,09,11.00
2020,09,30,08,10,11.00
2020,09,30,08,11,11.00
2020,09,30,08,12,11.00
2020,09,30,08,13,11.00
2020,09,30,08,14,11.00
2020,09,30,08,15,11.00
2020,09,30,08,16,11.00
2020,09,30,08,17,11.00
2020,09,30,08,18,11.00
2020,09,30,08,19,11.00
2020,09,30,08,20,11.00
2020,09,30,08,21,11.00
2020,09,30,08,22,11.00
2020,09,30,08,23,11.10
2020,09,30,08,24,11.10
2020,09,30,08,25,11.10
2020,09,30,08,26,11.20
2020,09,30,08,27,11.20
2020,09,30,08,28,11.20
2020,09,30,08,29,11.20
2020,09,30,08,30,11.20
2020,09,30,08,31,11.30
2020,09,30,08,32,11.30
2020,09,30,08,33,11.30
2020,09,30,08,34,11.30
2020,09,30,08,35,11.40
2020,09,30,08,36,11.40
2020,09,30,08,37,11.40
2020,09,30,08,38,11.50
2020,09,30,08,39,11.60
2020,09,30,08,40,11.60
2020,09,30,08,41,11.70
2020,09,30,08,42,11.70
2020,09,30,08,43,11.80
2020,09,30,08,44,11.80
2020,09,30,08,45,11.80
2020,09,30,08,46,11.90
2020,09,30,08,47,11.90
2020,09,30,08,48,11.90
2020,09,30,08,49,12.00
2020,09,30,08,50,12.00
2020,09,30,08,51,12.10
2020,09,30,08,52,12.10
2020,09,30,08,53,12.20
2020,09,30,08,54,12.20
2020,09,30,08,55,12.30
2020,09,30,08,56,12.30
2020,09,30,08,57,12.40
2020,09,30,08,58,12.40
2020,09,30,08,59,12.50
2020,09,30,09,00,12.60
2020,09,30,09,01,12.60
2020,09,30,09,02,12.70
2020,09,30,09,03,12.70
2020,09,30,09,04,12.80
2020,09,30,09,05,12.90
2020,09,30,09,06,12.90
2020,09,30,09,07,12.90
2020,09,30,09,08,12.90
2020,09,30,09,09,12.90
2020,09,30,09,10,13.00
2020,09,30,09,11,13.10
2020,09,30,09,12,13.20
2020,09,30,09,13,13.30
2020,09,30,09,14,13.40
2020,09,30,09,15,13.50
2020,09,30,09,16,13.60
2020,09,30,09,17,13.70
2020,09,30,09,18,13.80
2020,09,30,09,19,13.90
2020,09,30,09,20,13.90
2020,09,30,09,21,13.90
2020,09,30,09,22,14.00
2020,09,30,09,23,14.00
2020,09,30,09,24,14.00
2020,09,30,09,25,14.00
2020,09,30,09,26,14.00
2020,09,30,09,27,14.10
2020,09,30,09,28,14.10
2020,09,30,09,29,14.20
2020,09,30,09,30,14.30
2020,09,30,09,31,14.30
2020,09,30,09,32,14.40
2020,09,30,09,33,14.50
2020,09,30,09,34,14.60
2020,09,30,09,35,14.70
2020,09,30,09,36,14.80
2020,09,30,09,37,14.90
2020,09,30,09,38,15.00
2020,09,30,09,39,15.10
2020,09,30,09,40,15.20
2020,09,30,09,41,15.30
2020,09,30,09,42,15.30
2020,09,30,09,43,15.40
2020,09,30,09,44,15.50
2020,09,30,09,45,15.60
2020,09,30,09,46,15.60
2020,09,30,09,47,15.70
2020,09,30,09,48,15.80
2020,09,30,09,49,15.80
2020,09,30,09,50,15.80
2020,09,30,09,51,15.90
2020,09,30,09,52,15.90
2020,09,30,09,53,16.00
2020,09,30,09,54,16.10
2020,09,30,09,55,16.10
2020,09,30,09,56,16.20
2020,09,30,09,57,16.20
2020,09,30,09,58,16.30
2020,09,30,09,59,16.40
2020,09,30,10,00,16.50
2020,09,30,10,01,16.60
2020,09,30,10,02,16.70
2020,09,30,10,03,16.80
2020,09,30,10,04,16.90
2020,09,30,10,05,17.00
2020,09,30,10,06,17.00
2020,09,30,10,07,17.10
2020,09,30,10,08,17.10
2020,09,30,10,09,17.10
2020,09,30,10,10,17.20
2020,09,30,10,11,17.20
2020,09,30,10,12,17.20
2020,09,30,10,13,17.20
2020,09,30,10,14,17.20
2020,09,30,10,15,17.20
2020,09,30,10,16,17.20
2020,09,30,10,17,17.20
2020,09,30,10,18,17.20
2020,09,30,10,19,17.20
2020,09,30,10,20,17.20
2020,09,30,10,21,17.20
2020,09,30,10,22,17.20
2020,09,30,10,23,17.10
2020,09,30,10,24,17.10
2020,09,30,10,25,17.10
2020,09,30,10,26,17.10
2020,09,30,10,27,17.20
2020,09,30,10,28,17.20
2020,09,30,10,29,17.20
2020,09,30,10,30,17.30
2020,09,30,10,31,17.30
2020,09,30,10,32,17.40
2020,09,30,10,33,17.50
2020,09,30,10,34,17.50
2020,09,30,10,35,17.60
2020,09,30,10,36,17.60
2020,09,30,10,37,17.70
2020,09,30,10,38,17.70
2020,09,30,10,39,17.70
2020,09,30,10,40,17.70
2020,09,30,10,41,17.80
2020,09,30,10,42,17.80
2020,09,30,10,43,17.80
2020,09,30,10,44,17.90
2020,09,30,10,45,17.90
2020,09,30,10,46,18.00
2020,09,30,10,47,18.00
2020,09,30,10,48,18.10
2020,09,30,10,49,18.20
2020,09,30,10,50,18.20
2020,09,30,10,51,18.30
2020,09,30,10,52,18.30
2020,09,30,10,53,18.40
2020,09,30,10,54,18.40
2020,09,30,10,55,18.50
2020,09,30,10,56,18.60
2020,09,30,10,57,18.70
2020,09,30,10,58,18.80
2020,09,30,10,59,18.80
2020,09,30,11,00,18.90
2020,09,30,11,01,19.00
2020,09,30,11,02,19.10
2020,09,30,11,03,19.20
2020,09,30,11,04,19.20
2020,09,30,11,05,19.30
2020,09,30,11,06,19.40
2020,09,30,11,07,19.50
2020,09,30,11,08,19.60
2020,09,30,11,09,19.70
2020,09,30,11,10,19.80
2020,09,30,11,11,19.90
2020,09,30,11,12,19.90
2020,09,30,11,13,20.00
2020,09,30,11,14,20.10
2020,09,30,11,15,20.10
2020,09,30,11,16,20.20
2020,09,30,11,17,20.20
2020,09,30,11,18,20.20
2020,09,30,11,19,20.20
2020,09,30,11,20,20.20
2020,09,30,11,21,20.20
2020,09,30,11,22,20.20
2020,09,30,11,23,20.30
2020,09,30,11,24,20.30
2020,09,30,11,25,20.30
2020,09,30,11,26,20.40
2020,09,30,11,27,20.40
2020,09,30,11,28,20.40
2020,09,30,11,29,20.50
2020,09,30,11,30,20.50
2020,09,30,11,31,20.50
2020,09,30,11,32,20.50
2020,09,30,11,33,20.50
2020,09,30,11,34,20.50
2020,09,30,11,35,20.50
2020,09,30,11,36,20.50
2020,09,30,11,37,20.50
2020,09,30,11,38,20.60
2020,09,30,11,39,20.60
2020,09,30,11,40,20.60
2020,09,30,11,41,20.60
2020,09,30,11,42,20.60
2020,09,30,11,43,20.60
2020,09,30,11,44,20.60
2020,09,30,11,45,20.60
2020,09,30,11,46,20.60
2020,09,30,11,47,20.60
2020,09,30,11,48,20.60
2020,09,30,11,49,20.70
2020,09,30,11,50,20.70
2020,09,30,11,51,20.70
2020,09,30,11,52,20.70
2020,09,30,11,53,20.70
2020,09,30,11,54,20.70
2020,09,30,11,55,20.80
2020,09,30,11,56,20.80
2020,09,30,11,57,20.80
2020,09,30,11,58,20.70
2020,09,30,11,59,20.70
2020,09,30,12,00,20.70
2020,09,30,12,01,20.70
2020,09,30,12,02,20.70
2020,09,30,12,03,20.70
2020,09,30,12,04,20.70
2020,09,30,12,05,20.70
2020,09,30,12,06,20.70
2020,09,30,12,07,20.70
2020,09,30,12,08,20.70
2020,09,30,12,09,20.80
2020,09,30,12,10,20.80
2020,09,30,12,11,20.80
2020,09,30,12,12,20.90
2020,09,30,12,13,20.90
2020,09,30,12,14,20.90
2020,09,30,12,15,20.90
2020,09,30,12,16,20.90
2020,09,30,12,17,21.00
2020,09,30,12,18,21.00
2020,09,30,12,19,21.10
2020,09,30,12,20,21.10
2020,09,30,12,21,21.10
2020,09,30,12,22,21.20
2020,09,30,12,23,21.20
2020,09,30,12,24,21.30
2020,09,30,12,25,21.30
2020,09,30,12,26,21.40
2020,09,30,12,27,21.50
2020,09,30,12,28,21.60
2020,09,30,12,29,21.60
2020,09,30,12,30,21.70
2020,09,30,12,31,21.80
2020,09,30,12,32,21.80
2020,09,30,12,33,21.80
2020,09,30,12,34,21.80
2020,09,30,12,35,21.80
2020,09,30,12,36,21.80
2020,09,30,12,37,21.80
2020,09,30,12,38,21.80
2020,09,30,12,39,21.80
2020,09,30,12,40,21.80
2020,09,30,12,41,21.80
2020,09,30,12,42,21.80
2020,09,30,12,43,21.80
2020,09,30,12,44,21.90
2020,09,30,12,45,21.90
2020,09,30,12,46,21.90
2020,09,30,12,47,22.00
2020,09,30,12,48,22.00
2020,09,30,12,49,22.00
2020,09,30,12,50,22.00
2020,09,30,12,51,22.00
2020,09,30,12,52,22.10
2020,09,30,12,53,22.10
2020,09,30,12,54,22.10
2020,09,30,12,55,22.20
2020,09,30,12,56,22.20
2020,09,30,12,57,22.30
2020,09,30,12,58,22.30
2020,09,30,12,59,22.40
2020,09,30,13,00,22.40
2020,09,30,13,01,22.50
2020,09,30,13,02,22.60
2020,09,30,13,03,22.60
2020,09,30,13,04,22.60
2020,09,30,13,05,22.60
2020,09,30,13,06,22.70
2020,09,30,13,07,22.70
2020,09,30,13,08,22.70
2020,09,30,13,09,22.70
2020,09,30,13,10,22.70
2020,09,30,13,11,22.70
2020,09,30,13,12,22.80
2020,09,30,13,13,22.80
2020,09,30,13,14,22.80
2020,09,30,13,15,22.90
2020,09,30,13,16,22.90
2020,09,30,13,17,22.90
2020,09,30,13,18,22.90
2020,09,30,13,19,22.90
2020,09,30,13,20,22.90
2020,09,30,13,21,22.90
2020,09,30,13,22,22.90
2020,09,30,13,23,23.00
2020,09,30,13,24,23.10
2020,09,30,13,25,23.20
2020,09,30,13,26,23.30
2020,09,30,13,27,23.20
2020,09,30,13,28,23.10
2020,09,30,13,29,23.00
2020,09,30,13,30,22.90
2020,09,30,13,31,22.90
2020,09,30,13,32,23.00
2020,09,30,13,33,23.00
2020,09,30,13,34,23.00
2020,09,30,13,35,23.00
2020,09,30,13,36,22.90
2020,09,30,13,37,23.00
2020,09,30,13,38,23.00
2020,09,30,13,39,23.00
2020,09,30,13,40,23.10
2020,09,30,13,41,23.10
2020,09,30,13,42,23.10
2020,09,30,13,43,23.20
2020,09,30,13,44,23.30
2020,09,30,13,45,23.30
2020,09,30,13,46,23.30
2020,09,30,13,47,23.30
2020,09,30,13,48,23.20
2020,09,30,13,49,23.20
2020,09,30,13,50,23.20
2020,09,30,13,51,23.10
2020,09,30,13,52,23.10
2020,09,30,13,53,23.10
2020,09,30,13,54,23.10
2020,09,30,13,55,23.10
2020,09,30,13,56,23.10
2020,09,30,13,57,23.20
2020,09,30,13,58,23.20
2020,09,30,13,59,23.20
2020,09,30,14,00,23.30
2020,09,30,14,01,23.30
2020,09,30,14,02,23.40
2020,09,30,14,03,23.50
2020,09,30,14,04,23.50
2020,09,30,14,05,23.60
2020,09,30,14,06,23.60
2020,09,30,14,07,23.70
2020,09,30,14,08,23.80
2020,09,30,14,09,23.80
2020,09,30,14,10,23.70
2020,09,30,14,11,23.70
2020,09,30,14,12,23.70
2020,09,30,14,13,23.50
2020,09,30,14,14,23.30
2020,09,30,14,15,23.00
2020,09,30,14,16,22.70
2020,09,30,14,17,22.50
2020,09,30,14,18,22.20
2020,09,30,14,19,21.90
2020,09,30,14,20,21.70
2020,09,30,14,21,21.50
2020,09,30,14,22,21.30
2020,09,30,14,23,21.10
2020,09,30,14,24,21.00
2020,09,30,14,25,20.90
2020,09,30,14,26,20.90
2020,09,30,14,27,20.90
2020,09,30,14,28,20.80
2020,09,30,14,29,20.80
2020,09,30,14,30,20.70
2020,09,30,14,31,20.60
2020,09,30,14,32,20.60
2020,09,30,14,33,20.50
2020,09,30,14,34,20.40
2020,09,30,14,35,20.30
2020,09,30,14,36,20.20
2020,09,30,14,37,20.20
2020,09,30,14,38,20.20
2020,09,30,14,39,20.20
2020,09,30,14,40,20.20
2020,09,30,14,41,20.20
2020,09,30,14,42,20.20
2020,09,30,14,43,20.20
2020,09,30,14,44,20.20
2020,09,30,14,45,20.20
2020,09,30,14,46,20.30
2020,09,30,14,47,20.30
2020,09,30,14,48,20.40
2020,09,30,14,49,20.50
2020,09,30,14,50,20.50
2020,09,30,14,51,20.60
2020,09,30,14,52,20.70
2020,09,30,14,53,20.70
2020,09,30,14,54,20.70
2020,09,30,14,55,20.60
2020,09,30,14,56,20.70
2020,09,30,14,57,20.60
2020,09,30,14,58,20.60
2020,09,30,14,59,20.50
2020,09,30,15,00,20.50
2020,09,30,15,01,20.50
2020,09,30,15,02,20.50
2020,09,30,15,03,20.50
2020,09,30,15,04,20.50
2020,09,30,15,05,20.50
2020,09,30,15,06,20.50
2020,09,30,15,07,20.50
2020,09,30,15,08,20.50
2020,09,30,15,09,20.60
2020,09,30,15,10,20.50
2020,09,30,15,11,20.50
2020,09,30,15,12,20.50
2020,09,30,15,13,20.40
2020,09,30,15,14,20.30
2020,09,30,15,15,20.30
2020,09,30,15,16,20.30
2020,09,30,15,17,20.30
2020,09,30,15,18,20.30
2020,09,30,15,19,20.30
2020,09,30,15,20,20.30
2020,09,30,15,21,20.40
2020,09,30,15,22,20.50
2020,09,30,15,23,20.50
2020,09,30,15,24,20.60
2020,09,30,15,25,20.70
2020,09,30,15,26,20.80
2020,09,30,15,27,20.80
2020,09,30,15,28,20.90
2020,09,30,15,29,20.90
2020,09,30,15,30,20.90
2020,09,30,15,31,21.00
2020,09,30,15,32,21.00
2020,09,30,15,33,21.00
2020,09,30,15,34,20.90
2020,09,30,15,35,20.90
2020,09,30,15,36,20.90
2020,09,30,15,37,20.80
2020,09,30,15,38,20.80
2020,09,30,15,39,20.90
2020,09,30,15,40,20.90
2020,09,30,15,41,20.90
2020,09,30,15,42,20.90
2020,09,30,15,43,20.90
2020,09,30,15,44,20.80
2020,09,30,15,45,20.80
2020,09,30,15,46,20.90
2020,09,30,15,47,20.90
2020,09,30,15,48,20.90
2020,09,30,15,49,21.00
2020,09,30,15,50,21.00
2020,09,30,15,51,21.00
2020,09,30,15,52,21.00
2020,09,30,15,53,21.00
2020,09,30,15,54,21.10
2020,09,30,15,55,21.20
2020,09,30,15,56,21.30
2020,09,30,15,57,21.30
2020,09,30,15,58,21.40
2020,09,30,15,59,21.30
2020,09,30,16,00,21.30
2020,09,30,16,01,21.30
2020,09,30,16,02,21.20
2020,09,30,16,03,21.20
2020,09,30,16,04,21.20
2020,09,30,16,05,21.10
2020,09,30,16,06,21.10
2020,09,30,16,07,21.10
2020,09,30,16,08,21.10
2020,09,30,16,09,21.10
2020,09,30,16,10,21.10
2020,09,30,16,11,21.10
2020,09,30,16,12,21.10
2020,09,30,16,13,21.10
2020,09,30,16,14,21.10
2020,09,30,16,15,21.10
2020,09,30,16,16,21.10
2020,09,30,16,17,21.10
2020,09,30,16,18,21.10
2020,09,30,16,19,21.10
2020,09,30,16,20,21.10
2020,09,30,16,21,21.00
2020,09,30,16,22,21.10
2020,09,30,16,23,21.10
2020,09,30,16,24,21.00
2020,09,30,16,25,21.00
2020,09,30,16,26,21.00
2020,09,30,16,27,20.90
2020,09,30,16,28,20.90
2020,09,30,16,29,20.80
2020,09,30,16,30,20.80
2020,09,30,16,31,20.80
2020,09,30,16,32,20.70
2020,09,30,16,33,20.70
2020,09,30,16,34,20.70
2020,09,30,16,35,20.70
2020,09,30,16,36,20.60
2020,09,30,16,37,20.60
2020,09,30,16,38,20.60
2020,09,30,16,39,20.60
2020,09,30,16,40,20.60
2020,09,30,16,41,20.60
2020,09,30,16,42,20.50
2020,09,30,16,43,20.60
2020,09,30,16,44,20.60
2020,09,30,16,45,20.60
2020,09,30,16,46,20.60
2020,09,30,16,47,20.60
2020,09,30,16,48,20.50
2020,09,30,16,49,20.50
2020,09,30,16,50,20.50
2020,09,30,16,51,20.50
2020,09,30,16,52,20.40
2020,09,30,16,53,20.40
2020,09,30,16,54,20.40
2020,09,30,16,55,20.30
2020,09,30,16,56,20.20
2020,09,30,16,57,20.20
2020,09,30,16,58,20.10
2020,09,30,16,59,20.10
2020,09,30,17,00,20.10
2020,09,30,17,01,20.00
2020,09,30,17,02,20.00
2020,09,30,17,03,19.90
2020,09,30,17,04,19.90
2020,09,30,17,05,19.90
2020,09,30,17,06,19.90
2020,09,30,17,07,19.90
2020,09,30,17,08,19.90
2020,09,30,17,09,19.90
2020,09,30,17,10,19.90
2020,09,30,17,11,19.90
2020,09,30,17,12,19.90
2020,09,30,17,13,19.90
2020,09,30,17,14,19.90
2020,09,30,17,15,19.90
2020,09,30,17,16,19.80
2020,09,30,17,17,19.80
2020,09,30,17,18,19.80
2020,09,30,17,19,19.80